Location: Ostrava
(49.8330°N, 18.2830°E)
Time: 02:50:31
(UTC+02:00)

Envisat - Pass Details

Date: 22 January 2022
Orbit: 764 x 765 km, 98.2° (Epoch: 22 May)

Event Time Altitude Azimuth Distance (km) Brightness Sun altitude
Rises 17:25:07 0° 223° (SW) 3,221 7.4 -9.7°
Reaches altitude 10° 17:29:07 10° 255° (WSW) 2,302 7.1 -10.3°
Maximum altitude 17:30:55 12° 276° (W) 2,183 6.5 -10.5°
Drops below altitude 10° 17:32:43 10° 296° (WNW) 2,308 6.2 -10.8°
Sets 17:36:46 0° 329° (NNW) 3,241 6.4 -11.4°
